World > North America > United States > California

La Jolla, California Regional Weather

Lat: 32.85N, Lon: 117.27W
Wx Zone: CAZ043
Feedback

La Jolla, CA Regional Weather

Expires:202002231100;;964416
ASUS46 KSGX 231011
RWRSGX

SAN DIEGO HOURLY WEATHER ROUNDUP
NATIONAL WEATHER SERVICE SAN DIEGO CA
200 AM PST SUN FEB 23 2020

NOTE: "FAIR" INDICATES FEW OR NO CLOUDS BELOW 12,000 FEET WITH NO 
SIGNIFICANT WEATHER AND/OR OBSTRUCTIONS TO VISIBILITY.


CAZ042-043-060-061-PZZ750-775-231100-

GREATER SAN DIEGO AREA
  
CITY           SKY/WX    TMP DP  RH WIND       PRES   REMARKS
SAN DIEGO AP   MOCLDY    60  53  77 W5        30.20S                  
NATIONAL CITY    N/A    N/A N/A N/A CALM      30.19S                  
CHULA VISTA      N/A     57  52  83 CALM      30.10S                  
BROWN FIELD    MOCLDY    52  48  86 SW6       30.19R                  
MIRAMAR MCAS   PTCLDY    55  50  83 SW3       30.18S                  
MONTGOMERY FLD MOCLDY    57  50  77 W6        30.18F                  
GILLESPIE FLD  CLOUDY    52  52 100 CALM      30.18S                  
LEMON GROVE      N/A     55  51  87 CALM      30.17R                  

$$

NORTH SAN DIEGO COUNTY
  
CITY           SKY/WX    TMP DP  RH WIND       PRES   REMARKS
CAMP PENDLETON CLOUDY    50  48  93 CALM      30.18S                  
OCEANSIDE AP   CLOUDY    52  50  93 CALM      30.17S                  
OCEANSIDE HBR    N/A     58  54  85 SW9       30.25S                  
VISTA            N/A     53  48  82 CALM      30.15S                  
CARLSBAD       MOCLDY    57  48  72 CALM      30.17S                  
ENCINITAS        N/A     55  51  85 CALM        N/A                   
DEL MAR          N/A     56  52  85 W1        30.19S                  
LA JOLLA SCRIP   N/A     57  51  79 CALM      30.18S                  
FALLBROOK      CLOUDY    50  50 100 CALM      30.18S                  
ESCONDIDO        N/A     53  50  89 CALM      30.19R                  
SAN MARCOS       N/A     53  50  88 CALM      30.22R                  
RANCHO BERNARD   N/A     53  50  89 CALM      30.18S                  
POWAY            N/A     53  51  95 NE1       30.21S                  

$$

EAST SAN DIEGO COUNTY
  
CITY           SKY/WX    TMP DP  RH WIND       PRES   REMARKS
RAMONA         CLOUDY    50  49  96 W10       30.17S                  
LA MESA          N/A     54  48  82 CALM      30.14R                  
JAMUL            N/A     51  49  92 CALM      30.19R                  
DESCANSO N       N/A     43  42  97 SW7       30.16R                  
MT. LAGUNA OBS   N/A     32  32  99 N10       30.14S WCI  24          
CAMPO            N/A     46  30  53 SW14      30.12S                  

$$

ORANGE COUNTY AND THE LOS ANGELES BASIN
  
CITY           SKY/WX    TMP DP  RH WIND       PRES   REMARKS
JOHN WAYNE AP  CLOUDY    60  51  72 CALM      30.17R                  
LAKE FOREST FR   N/A     51  47  89 W2        30.07R                  
HUNTINGTON BCH   N/A     57  53  85 W3        30.17R                  
LOS ALAMITOS   CLOUDY    55  50  85 SW6       30.16S                  
FULLERTON      CLOUDY    58  52  80 VRB3      30.16R                  
LONG BEACH     PTCLDY    57  49  74 CALM      30.16S                  
L.A. AP        PTCLDY    59  49  69 W8        30.16S                  
L.A. DOWNTOWN  PTCLDY    58  47  66 CALM      30.16R                  

$$

THE INLAND EMPIRE
  
CITY           SKY/WX    TMP DP  RH WIND       PRES   REMARKS
CORONA         CLOUDY    55  49  80 N6        30.17R                  
ALTA LOMA        N/A     48  48  99 CALM      30.16S                  
CHINO          CLOUDY    56  49  77 W6        30.17S                  
ONTARIO        CLOUDY    53  49  86 W6        30.16R                  
SAN BERNARDINO DRIZZLE   51  47  86 E6        30.17S                  
RIVERSIDE AP   CLOUDY    52  48  86 NE5       30.16S                  
MORENO VALLEY    N/A     49  49 100 CALM      30.14R                  
MARCH ARB      CLOUDY    50  47  90 CALM      30.15S                  
HORSETHIEF CYN   N/A     50  43  77 CALM      30.16R                  
PERRIS           N/A     49  49  99 CALM      30.15R                  
LAKE ELSINORE    N/A     52  44  74 SW6       30.11R                  
HEMET EAST       N/A     47  44  86 CALM      30.21R                  
FRENCH VALLEY  CLOUDY    50  48  93 SW3       30.17S                  
TEMECULA         N/A     53  51  95 SW1       30.15R                  

$$

SAN BERNARDINO AND RIVERSIDE COUNTY MOUNTAINS
  
CITY           SKY/WX    TMP DP  RH WIND       PRES   REMARKS
BIG BEAR AP    FOG       32  32 100 W8        30.12R VSB 3/4 WCI  25  
BIG BEAR LAKE    N/A     33  32  94 W2        30.17R                  
LK ARROWHEAD N   N/A     38  38  99 CALM      30.13R                  
WRIGHTWOOD       N/A     38  31  77 CALM      30.14S                  
ANGELUS OAKS     N/A     34  32  92 CALM      30.12R                  
IDYLLWILD        N/A     35  34  95 CALM      30.09R                  
GARNER VALLEY    N/A     38  36  91 W3        30.13R                  
TORO PEAK        N/A     25  22  88 E9          N/A  WCI  15          

$$

SOUTHERN DESERT INCLUDING THE COACHELLA VALLEY
  
CITY           SKY/WX    TMP DP  RH WIND       PRES   REMARKS
PALM SPRINGS   PTCLDY    57  41  55 CALM      30.07S                  
THOUSAND PALMS   N/A     58  44  59 NW7       30.03R                  
PALM DESERT      N/A     55  43  63 CALM      29.21S                  
INDIO            N/A     60  44  55 NW9       30.07R                  
THERMAL        PTCLDY    59  43  55 N9        30.05S                  
BORREGO AP     PTSUNNY   55  39  54 W10G23    30.10F                  
OCOTILLO WELLS   N/A     60  43  53 N10       30.02S                  
CANEBRAKE        N/A     55  40  56 E3        30.06R                  
BLYTHE         MOCLDY    55  40  56 MISG      30.05S                  
EL CENTRO NAS  CLEAR     59  41  51 W15       30.10S                  
YUMA AZ        CLEAR     54  41  61 NW7       30.07S                  

$$

UPPER DESERT
  
CITY           SKY/WX    TMP DP  RH WIND       PRES   REMARKS
HESPERIA         N/A     46  42  84 W7        30.16R                  
APPLE VALLEY     N/A     46  40  80 N2        30.15R                  
PALMDALE       PTCLDY    48  40  73 SW14      30.12R                  
LANCASTER      PTCLDY    48  40  73 W15       30.11S                  
EDWARDS AFB    PTCLDY    46  42  84 S14       30.07S                  
DAGGETT        CLOUDY    52  41  66 NW12      30.06S                  
29 PALMS N     CLOUDY    52  40  63 W13       30.12S                  
29 PALMS JTNP    N/A     52  41  66 CALM      29.99R                  
NEEDLES        PTCLDY    53  46  77 VRB3      30.02R                  

$$

REGIONAL REPORTS
  
CITY           SKY/WX    TMP DP  RH WIND       PRES   REMARKS
SANTA BARBARA  CLEAR     52  44  74 N5        30.16R                  
SANDBERG       PTCLDY    42  37  82 W15       30.14S                  
LAS VEGAS NV   LGT RAIN  50  43  77 CALM      30.02R                  
PHOENIX AZ     MOCLDY    55  42  61 SW8       30.01F                  
TIJUANA        MOCLDY    52  50  93 CALM      30.22R                  

$$

OFFSHORE ISLANDS
  
CITY           SKY/WX    TMP DP  RH WIND       PRES   REMARKS
CATALINA ARPT  CLOUDY    50  47  89 W13       30.18R                  
SAN CLEMENTE I CLOUDY    55  32  41 NW15      30.21R                  
SAN NICOLAS IS CLOUDY    52  45  77 NW18G28   30.18F                  

$$

MARINE AND OFFSHORE BUOY REPORTS
  
STATION/POSITION SKY/WX   TEMP    WIND        PRES    VSBY  SWELL
                          AIR SEA DIR/SP/G                  HT/PER/DIR
                          (F)     (DEG/KT/KT) (MB)    (MI)  (FT/S/D)
TANNER BANKS               56     290/ 16/ 21 1023.6R         7/270/10
S CLEMENTE BASIN           58     280/ 14/ 17 1022.5R         5/280/14
SAN NICOLAS IS.               58                N/A           5/290
52b
/11
SO. S. ROSA ISLA           55 58              1023.0F         7/310/10
W. S. BARBARA CH           55 57  320/ 19/ 23 1022.9R         7/300/ 9
M. S. BARBARA CH           56 58  280/ 14/ 17 1022.2
S. MONICA BASIN            57 60  280/ 10/ 12 1021.8R         3/260/ 6
S PEDRO CHANNEL               60                N/A           2/260/13
OCEANSIDE OFFSHR              60                N/A           2/240/13
TORREY PINES OTR              58                N/A           2/260/12
SAN DIEGO BAY                 62              1022.0
IMPERIAL BEACH                58                N/A           2/270/14
POINT LOMA SOUTH              60                N/A           3/240/13

$$

  

SKY/WX - Weather  TMP - Temperature  DP - Dew Point  RH - Relative Humidity
WIND - Wind Direction/Speed PRES - Barometric Pressure VSB - Visibility
WCI - Wind Chill Index E13G22 Wind - East Wind 13 mph/Gusts of 22 mph
La Jolla Weather Map
What is UTC time?